Regional Weather Roundup
Issued by NWS Goodland, KS

Home | Current Version | Previous Version | Graphics & Text | Print | Product List | Glossary On
Versions: 1 2 3 4 5 6 7 8 9 10 11 12 13 14 15 16 17 18 19 20 21 22 23 24 25 26 27 28 29 30 31 32 33 34 35 36 37 38 39 40 41 42 43 44 45 46 47 48 49 50
000
ASUS43 KGLD 092108
RWRGLD

GOODLAND FORECAST AREA HOURLY WEATHER ROUNDUP
NATIONAL WEATHER SERVICE GOODLAND KS
200 PM MST TUE FEB 09 2016

...OFFICIAL OBSERVATIONS...

CITY           SKY/WX    TMP DP  RH WIND       PRES   REMARKS
GOODLAND KS    CLOUDY    46  29  51 NW10      30.23F
HILL CITY KS   CLOUDY    38  21  50 N5        30.28F
IMPERIAL NEB   CLOUDY    41  29  62 W5        30.21F
MCCOOK NEB     CLOUDY    39  20  46 N3        30.25F
AKRON CO       SUNNY     43  32  65 W10       30.25F
BURLINGTON CO  SUNNY     43  29  57 NW14      30.25F
LIMON CO       SUNNY     44  24  45 W7        30.29F
$$

...UNOFFICIAL OBSERVATIONS...

CITY           SKY/WX    TMP DP  RH WIND       PRES   REMARKS
COLBY KS       CLOUDY    39  28  65 SW3       30.24F
GOVE KS          N/A     40  32  73 MISG        N/A
LENORA KS        N/A     36  32  85 MISG        N/A
NORTON KS      CLOUDY    34  18  51 CALM      30.26S
SHARON SPRINGS   N/A     49  33  55 NW13G24     N/A
TRIBUNE KS     SUNNY     55  30  38 NW24G30   30.27F
KIT CARSON CO    N/A     48  31  52 MISG        N/A
YUMA CO          N/A     43  32  66 NW12        N/A
$$



USA.gov is the U.S. government's official web portal to all federal, state and local government web resources and services.